CAPE
0 0 0 0 0 0 0 0 0 0 0 0 0 0 0 0 0 0 0 0 0 0 0 0 0 0 0 0 0 819 1328 1326 1101 831 678 544 376 161 33 2 1 1 0 0
0 0 0 0 0 0 0 0 0 0 0 0 0 0 0 0 0 0 0 0 0 0 0 0 0 0 0 0 0 0 0 1376 1096 890 690 576 318 113 17 2 1 0 2 12
0 0 0 0 0 0 0 0 0 0 0 0 0 0 0 0 0 0 0 0 0 0 0 0 0 0 0 0 0 0 2 2 1241 931 649 509 326 77 18 3 3 1 1 0
0 0 0 0 0 0 0 0 0 0 0 0 0 0 0 0 0 0 0 0 0 0 0 1 0 0 0 0 0 0 2 4 626 1040 728 596 431 242 154 35 3 2 0 0
0 0 0 0 0 0 0 0 0 0 0 0 0 0 0 0 0 0 0 1 0 4 0 0 0 0 0 0 0 0 1 3 3 305 828 553 480 344 164 24 2 2 1 0
0 0 0 0 0 0 0 0 0 0 0 0 0 0 0 0 1 0 0 0 1 0 3 0 0 0 0 0 0 0 1 3 3 2 1 574 528 389 224 78 19 5 3 1
0 0 0 0 0 0 0 0 0 0 0 1 0 0 0 0 0 1 0 0 0 1 2 3 1 2 0 0 0 0 1 2 2 5 4 70 511 344 244 156 55 30 5 6
0 0 0 0 0 0 0 0 0 0 2 28 0 0 0 0 0 0 0 0 0 0 2 3 2 2 2 1 1 1 0 2 3 5 6 5 0 405 307 255 118 89 31 40
0 0 0 0 0 0 0 0 0 0 0 0 0 0 0 0 0 0 0 0 0 0 0 0 1 5 1 1 2 1 2 2 2 3 6 1 0 174 487 353 207 112 54 78
0 0 0 0 0 0 0 0 0 0 1 0 0 0 0 0 0 0 0 0 0 0 0 0 0 2 0 1 2 2 2 2 2 2 3 6 5 11 349 333 231 162 78 57
0 0 0 0 0 0 0 0 0 0 0 0 0 0 0 0 0 0 0 0 0 0 0 0 0 0 0 0 1 1 1 2 2 2 2 4 3 2 276 300 253 175 127 48
0 0 0 0 0 0 0 0 0 0 0 0 0 0 0 1 0 0 0 0 0 0 0 0 0 0 3 0 1 1 1 1 2 2 1 4 5 4 292 284 337 267 157 45
0 0 0 0 0 0 0 0 0 0 0 0 0 0 0 0 0 0 0 0 0 0 0 0 0 0 0 0 0 0 0 1 1 2 2 2 5 6 4 450 335 428 282 87
0 0 0 0 0 0 0 0 0 0 0 0 0 0 0 0 0 0 0 0 0 0 0 0 0 0 0 0 0 0 0 0 1 2 2 2 3 4 6 4 383 312 499 300
0 0 0 0 0 0 0 0 0 0 0 0 0 0 0 0 0 0 0 0 0 0 0 0 0 0 0 0 0 0 0 0 1 2 3 2 2 2 3 4 2 312 284 367
0 0 0 0 0 0 0 0 0 0 0 0 0 0 0 0 0 0 0 0 0 0 0 0 0 0 0 0 0 0 0 0 0 1 2 3 2 2 3 5 2 15 213 316
0 0 0 0 0 0 0 0 0 0 0 0 0 0 0 0 0 0 0 0 0 0 0 0 0 0 0 0 0 0 0 0 0 1 1 2 2 2 2 3 3 1 1 70
0 0 0 0 0 0 0 0 0 0 0 0 0 0 0 0 0 0 0 0 0 0 0 0 0 0 0 0 0 0 0 0 0 0 1 1 2 3 2 3 4 1 2 12
0 0 0 0 0 0 0 0 0 0 0 0 0 0 0 0 0 0 0 0 0 0 0 0 0 0 0 0 0 0 0 0 0 0 1 2 2 2 3 3 6 6 5 6
0 0 0 0 0 0 0 0 0 0 0 0 0 0 0 0 0 0 0 0 0 0 0 0 0 0 0 0 0 0 0 0 0 0 0 1 2 2 2 2 3 4 7 2
0 0 0 0 0 0 0 0 0 0 0 0 0 0 0 0 0 0 0 0 0 0 0 0 0 0 0 0 0 0 0 0 0 0 0 0 2 2 1 1 1 4 5 5
0 0 0 0 0 0 0 0 0 0 0 0 0 0 0 0 0 0 0 0 0 0 0 0 0 0 0 0 0 0 0 0 0 0 0 0 0 2 2 1 1 1 4 4
0 0 0 0 0 0 0 0 0 0 0 0 0 0 0 0 0 0 0 0 0 0 0 0 0 0 0 0 0 0 0 0 0 0 0 0 0 0 2 1 1 2 2 3
0 0 0 0 0 0 0 0 0 0 0 0 0 0 0 0 0 0 0 0 0 0 0 0 0 0 0 0 0 0 0 0 0 0 0 0 0 0 0 2 2 0 2 2
0 0 0 0 0 0 0 0 0 0 0 0 0 0 0 0 0 0 0 0 0 0 0 0 0 0 0 0 0 0 0 0 0 0 0 0 0 0 0 0 1 1 1 1
0 0 0 0 0 0 0 0 0 0 0 0 0 0 0 0 0 0 0 0 0 0 0 0 0 0 0 0 0 0 0 0 0 0 0 0 0 0 0 0 2 2 0 0
CIN
-0 -0 -0 -0 -0 -0 -0 -0 -0 -0 -0 -0 -0 -0 -0 -0 -0 -0 -0 -0 -0 -0 -0 -0 -0 -0 -0 -0 -0 -17 -61 -123 -113 -111 -104 -110 -99 -118 -169 -0 -0 -1 -0 -0
-0 -0 -0 -0 -0 -0 -0 -0 -0 -0 -0 -0 -0 -0 -0 -0 -0 -0 -0 -0 -0 -0 -0 -0 -0 -0 -0 -0 -0 -0 -0 -32 -168 -158 -160 -165 -160 -190 -211 -0 -0 -0 -3 -72
-0 -0 -0 -0 -0 -0 -0 -0 -0 -0 -0 -0 -0 -0 -0 -0 -0 -0 -0 -0 -0 -0 -0 -0 -0 -0 -0 -0 -0 -0 -0 -0 -3 -147 -135 -88 -72 -98 -140 -0 -0 -0 -0 -0
-0 -0 -0 -0 -0 -0 -0 -0 -0 -0 -0 -0 -0 -0 -0 -0 -0 -0 -0 -0 -0 -0 -0 -0 -0 -0 -0 -0 -0 -0 -0 -0 -55 -18 -63 -148 -159 -155 -186 -229 -57 -0 -0 -0
-0 -0 -0 -0 -0 -0 -0 -0 -0 -0 -0 -0 -0 -0 -0 -0 -0 -0 -0 -0 -0 -0 -0 -0 -0 -0 -0 -0 -0 -0 -0 -0 -0 -102 -8 -79 -129 -143 -165 -187 -0 -0 -0 -0
-0 -0 -0 -0 -0 -0 -0 -0 -0 -0 -0 -0 -0 -0 -0 -0 -0 -0 -0 -0 -1 -0 -1 -0 -0 -0 -0 -0 -0 -0 -0 -0 -0 -0 -0 -13 -59 -101 -107 -111 -108 -127 -0 -0
-0 -0 -0 -0 -0 -0 -0 -0 -0 -0 -0 -15 -0 -0 -0 -0 -0 -0 -0 -0 -0 -1 -0 -0 -0 -0 -0 -0 -0 -0 -0 -0 -0 -0 -0 -47 -12 -26 -114 -116 -157 -109 -88 -0
-0 -0 -0 -0 -0 -0 -0 -0 -23 -0 -3 -14 -0 -0 -4 -0 -0 -0 -0 -0 -0 -0 -0 -0 -0 -0 -0 -0 -0 -0 -0 -0 -0 -0 -0 -0 -0 -21 -41 -128 -230 -214 -203 -160
-0 -0 -0 -0 -0 -0 -0 -0 -0 -0 -0 -0 -0 -0 -0 -0 -0 -0 -0 -0 -0 -0 -0 -0 -0 -0 -0 -0 -0 -0 -0 -0 -0 -0 -0 -0 -0 -57 -10 -67 -77 -94 -166 -128
-0 -0 -0 -0 -0 -0 -0 -0 -0 -0 -7 -0 -0 -0 -0 -0 -0 -0 -0 -0 -0 -0 -0 -0 -0 -0 -0 -0 -0 -0 -0 -0 -0 -0 -0 -0 -0 -17 -18 -37 -65 -86 -132 -127
-0 -0 -0 -0 -0 -0 -0 -0 -0 -0 -0 -0 -0 -0 -0 -0 -0 -0 -0 -0 -0 -0 -0 -0 -0 -0 -0 -0 -0 -0 -0 -0 -0 -0 -0 -0 -0 -0 -21 -14 -34 -74 -102 -127
-0 -0 -0 -0 -0 -0 -0 -0 -0 -0 -0 -0 -0 -0 -0 -0 -0 -0 -0 -0 -0 -0 -0 -0 -0 -0 -0 -0 -0 -0 -0 -0 -0 -0 -0 -0 -0 -0 -52 -11 -11 -31 -73 -135
-0 -0 -0 -0 -0 -0 -0 -0 -0 -0 -0 -0 -0 -0 -0 -0 -0 -0 -0 -0 -0 -0 -0 -0 -0 -0 -0 -0 -0 -0 -0 -0 -0 -0 -0 -0 -0 -0 -0 -1 -14 -6 -24 -130
-0 -0 -0 -0 -0 -0 -0 -0 -0 -0 -0 -0 -0 -0 -0 -0 -0 -0 -0 -0 -0 -0 -0 -0 -0 -0 -0 -0 -0 -0 -0 -0 -0 -0 -0 -0 -0 -0 -0 -0 -4 -16 -0 -28
-0 -0 -0 -0 -0 -0 -0 -0 -0 -0 -0 -0 -0 -0 -0 -0 -0 -0 -0 -0 -0 -0 -0 -0 -0 -0 -0 -0 -0 -0 -0 -0 -0 -0 -0 -0 -0 -0 -0 -0 -0 -2 -16 -2
-0 -0 -0 -0 -0 -0 -0 -0 -0 -0 -0 -0 -0 -0 -0 -0 -0 -0 -0 -0 -0 -0 -0 -0 -0 -0 -0 -0 -0 -0 -0 -0 -0 -0 -0 -0 -0 -0 -0 -0 -0 -10 -15 -5
-0 -0 -0 -1 -0 -0 -0 -9 -0 -0 -0 -0 -0 -0 -0 -0 -0 -0 -0 -0 -0 -0 -0 -0 -0 -0 -0 -0 -0 -0 -0 -0 -0 -0 -0 -0 -0 -0 -0 -0 -0 -0 -23 -43
-0 -0 -0 -0 -7 -0 -0 -0 -0 -0 -0 -0 -0 -0 -0 -0 -0 -0 -0 -0 -0 -0 -0 -0 -0 -0 -0 -0 -0 -0 -0 -0 -0 -0 -0 -0 -0 -0 -0 -0 -0 -0 -0 -58
-0 -0 -0 -0 -0 -0 -0 -0 -0 -0 -0 -0 -0 -0 -0 -0 -0 -0 -0 -0 -0 -0 -0 -0 -0 -0 -0 -0 -0 -0 -0 -0 -0 -0 -0 -0 -0 -0 -0 -0 -0 -0 -0 -114
-0 -0 -0 -0 -0 -0 -0 -0 -0 -0 -0 -0 -0 -0 -0 -0 -0 -0 -0 -0 -0 -0 -0 -0 -0 -0 -0 -0 -0 -0 -0 -0 -0 -0 -0 -0 -0 -0 -0 -0 -0 -0 -0 -0
-0 -0 -0 -0 -0 -0 -0 -0 -0 -0 -0 -0 -0 -0 -0 -0 -0 -0 -0 -0 -0 -0 -0 -0 -0 -0 -0 -0 -0 -0 -0 -0 -0 -0 -0 -0 -0 -0 -0 -0 -0 -0 -0 -0
-0 -0 -0 -0 -0 -0 -0 -0 -0 -0 -0 -0 -0 -0 -0 -0 -0 -0 -0 -0 -0 -0 -0 -0 -0 -0 -0 -0 -0 -0 -0 -0 -0 -0 -0 -0 -0 -0 -0 -0 -0 -0 -0 -0
-0 -0 -0 -0 -0 -0 -0 -0 -0 -0 -0 -0 -0 -0 -0 -0 -0 -0 -0 -0 -0 -0 -0 -0 -0 -0 -0 -0 -0 -0 -0 -0 -0 -0 -0 -0 -0 -0 -0 -0 -0 -0 -0 -0
-0 -0 -0 -0 -0 -0 -0 -0 -0 -0 -0 -0 -0 -0 -0 -0 -0 -0 -0 -0 -0 -0 -0 -0 -0 -0 -0 -0 -0 -0 -0 -0 -0 -0 -0 -0 -0 -0 -0 -0 -0 -0 -0 -0
-0 -0 -0 -0 -0 -0 -0 -0 -0 -0 -0 -0 -0 -0 -0 -0 -0 -0 -0 -0 -0 -0 -0 -0 -0 -0 -0 -0 -0 -0 -0 -0 -0 -0 -0 -0 -0 -0 -0 -0 -0 -0 -0 -0
-0 -0 -0 -0 -0 -0 -2 -0 -0 -0 -0 -0 -0 -0 -0 -0 -0 -0 -0 -0 -0 -0 -0 -0 -0 -0 -0 -0 -0 -0 -0 -0 -0 -0 -0 -0 -0 -0 -0 -0 -0 -0 -0 -0
Wind_Speed
29 30 36 35 32 31 32 34 38 38 34 39 36 38 32 31 32 35 35 35 34 34 34 34 34 32 30 27 26 36 31 22 18 17 17 14 16 14 14 15 14 16 12 13
29 35 39 34 36 36 35 37 40 37 39 37 38 38 27 29 31 33 35 36 37 37 36 35 34 32 30 29 26 28 35 36 21 19 20 17 16 16 16 16 16 15 15 18
31 37 40 36 41 45 38 39 43 43 43 34 35 31 30 32 32 35 35 35 35 35 37 36 34 33 30 29 28 30 33 36 39 23 19 18 18 18 18 18 19 17 16 16
29 40 41 40 43 45 45 43 47 46 42 41 31 44 33 36 35 36 37 38 37 36 34 33 32 32 30 30 29 29 30 33 36 32 27 21 22 21 22 19 19 19 20 18
36 40 44 46 47 49 47 49 46 44 44 40 35 33 35 34 37 38 38 38 36 34 33 32 30 30 30 30 29 28 29 29 30 32 32 30 25 24 21 20 20 20 21 19
32 31 38 43 50 49 46 44 45 36 37 40 31 31 34 33 35 36 37 37 35 34 32 30 29 28 29 29 29 28 28 29 31 32 32 35 32 25 22 23 22 21 23 21
36 36 40 47 52 44 47 36 30 29 30 35 19 22 23 26 29 31 34 35 34 32 31 31 30 29 29 30 30 29 29 30 31 31 32 31 36 33 24 24 24 24 25 24
47 56 51 41 41 33 33 30 20 20 20 19 15 14 16 22 26 28 29 31 31 30 31 29 30 29 29 30 30 30 30 31 30 32 34 32 32 34 33 26 27 24 24 24
45 45 41 36 29 28 26 32 23 21 22 16 15 16 18 27 27 28 29 31 30 30 30 30 29 28 29 30 30 30 31 32 31 31 34 34 34 36 34 33 30 29 23 21
38 43 39 33 23 26 15 18 19 18 17 13 14 16 23 25 26 28 29 30 30 30 29 30 30 30 30 31 31 31 31 32 33 33 33 36 37 36 34 32 32 32 29 25
35 36 39 33 30 36 30 26 18 14 15 13 11 15 22 22 24 27 29 30 30 29 27 27 29 29 31 31 31 31 31 32 33 33 34 34 37 38 37 36 33 30 30 25
34 33 38 27 32 28 32 25 24 21 19 15 13 16 22 23 25 27 28 30 30 28 28 29 28 29 27 28 29 29 30 31 32 32 33 35 36 39 39 43 39 34 32 31
32 34 39 28 19 28 33 26 25 22 18 21 17 21 24 24 26 27 29 31 30 30 30 32 31 31 29 29 29 29 29 30 31 32 32 32 34 36 38 40 41 42 36 34
27 30 30 28 23 25 28 33 27 22 22 20 20 24 26 27 29 29 31 32 32 32 32 32 33 31 31 31 31 30 30 31 32 32 32 33 35 38 40 36 41 43 43 36
32 32 26 22 22 25 25 29 30 29 24 23 26 26 28 30 31 31 32 33 33 33 32 33 33 34 32 32 32 33 31 33 33 34 34 35 36 37 39 39 38 45 45 45
31 31 23 16 14 19 24 25 27 29 27 27 27 28 29 33 33 32 33 35 35 35 35 34 35 36 35 35 35 36 34 35 35 35 36 37 38 38 40 42 44 40 46 49
29 33 29 24 16 16 20 21 22 27 30 30 29 31 32 35 36 35 35 35 36 36 36 35 35 35 34 34 34 35 36 36 36 36 37 38 38 40 40 41 41 43 39 45
29 32 25 24 18 22 14 17 20 24 26 25 29 31 33 35 36 35 35 36 36 36 37 36 37 35 35 35 35 36 36 36 36 36 37 37 39 40 41 41 42 42 44 41
25 29 28 28 24 15 14 15 16 16 19 20 29 32 34 35 35 35 35 36 36 36 36 37 35 33 36 36 36 36 36 36 35 37 37 38 37 39 40 40 40 41 42 46
28 27 27 26 26 21 13 13 19 18 16 21 18 26 35 36 36 36 37 36 36 35 37 37 37 37 37 37 36 36 37 37 37 36 37 38 37 36 36 36 37 35 38 38
33 30 31 27 26 19 11 13 19 16 16 17 19 18 35 36 36 38 37 36 34 36 36 38 37 36 36 35 36 36 37 36 35 34 36 36 35 34 34 32 32 31 31 30
32 34 31 27 27 25 15 12 14 12 17 23 22 20 12 9 21 36 36 35 36 36 37 37 36 35 35 35 36 36 36 35 33 33 33 34 34 33 31 30 28 26 28 28
31 29 25 22 20 16 11 11 9 11 16 28 24 25 11 8 26 36 35 36 36 36 38 37 36 35 34 35 35 35 36 35 34 32 31 31 31 31 29 26 24 24 24 25
26 23 23 24 19 15 13 8 6 12 16 27 29 28 13 10 12 31 36 35 36 36 37 37 35 34 34 34 33 33 34 34 33 31 30 30 31 32 32 27 23 22 22 21
23 24 25 23 17 13 10 8 9 9 9 4 10 18 14 9 19 24 31 36 35 36 37 35 34 33 34 33 33 33 33 33 33 33 32 31 30 29 28 27 22 21 20 20
21 25 26 26 20 18 14 13 13 10 8 8 9 11 16 17 24 26 24 22 36 35 35 34 34 34 34 34 34 33 33 32 32 32 31 30 29 28 27 26 24 21 19 18
Wind_Direction
1 357 344 338 333 327 321 312 303 302 311 304 302 298 309 315 314 311 308 309 308 305 303 305 304 305 306 308 284 248 241 234 230 233 233 234 231 226 224 216 207 210 215 235
357 350 344 341 339 329 321 311 305 302 306 303 299 297 310 318 316 313 309 306 307 303 302 303 304 303 305 302 291 270 254 240 228 228 237 233 227 225 225 216 215 211 206 234
360 352 349 346 335 326 321 316 310 304 303 300 296 291 302 310 314 314 312 310 308 303 299 299 300 300 300 301 294 279 263 257 239 237 238 239 239 237 230 215 208 207 203 211
3 351 347 341 336 333 318 317 309 302 301 290 298 283 300 306 306 312 311 308 303 302 300 297 298 298 298 298 296 284 273 260 248 241 239 228 231 232 237 225 221 211 201 199
357 354 349 341 334 330 315 310 303 297 290 290 287 285 294 306 300 306 309 308 306 302 297 295 294 296 297 296 296 293 279 267 257 251 241 238 236 241 239 227 227 216 206 205
3 7 358 349 338 331 323 311 301 293 287 278 281 281 297 301 303 304 308 309 307 302 297 295 295 295 297 297 296 295 285 272 265 257 260 239 241 236 234 227 227 225 224 218
2 359 358 351 345 346 330 321 320 294 277 280 288 291 295 313 316 315 310 310 307 304 299 296 295 296 296 298 294 296 287 278 271 262 258 253 245 240 229 224 229 227 227 224
357 352 357 357 356 358 357 338 337 323 292 275 301 282 314 333 331 327 324 318 312 308 306 301 294 297 297 299 295 294 292 282 279 268 262 260 257 246 243 229 234 199 211 218
0 357 359 4 7 20 13 340 263 308 294 288 288 286 308 331 329 329 323 323 319 311 311 308 300 301 297 297 296 295 291 286 282 277 268 261 260 254 245 246 241 237 222 212
7 0 9 12 35 30 48 302 343 307 316 296 290 295 298 318 318 323 323 324 325 322 314 316 310 300 302 299 299 297 294 289 283 280 276 266 261 260 252 245 243 241 238 231
13 14 14 32 36 25 22 348 337 314 316 331 303 301 309 307 313 321 324 327 326 327 318 313 318 313 304 299 304 300 297 292 289 285 280 278 268 261 253 248 243 242 242 233
17 19 17 34 46 47 5 343 345 346 338 332 306 310 315 313 311 318 318 323 323 322 319 320 317 323 315 310 307 304 299 298 295 290 287 279 275 268 261 250 247 245 244 240
19 21 20 32 40 39 31 341 346 343 324 324 313 296 310 314 316 316 320 321 322 321 317 324 324 323 323 319 312 308 306 301 301 294 290 287 281 274 269 255 252 248 246 245
28 25 26 29 39 40 33 8 347 344 328 321 315 298 304 314 319 318 318 321 319 322 321 317 325 324 320 320 318 312 311 308 305 299 294 290 286 278 270 270 254 252 247 246
27 22 32 46 48 40 40 27 15 358 338 321 306 303 302 311 310 312 314 318 319 317 319 321 321 324 320 320 321 319 318 315 309 305 296 293 290 283 277 268 269 253 250 246
27 21 28 29 43 42 37 34 30 17 350 328 306 302 308 311 311 310 313 317 319 320 317 317 322 322 321 322 320 324 320 320 314 308 301 294 291 287 279 274 265 268 253 249
24 21 21 25 38 42 31 36 35 20 2 340 323 309 309 310 312 310 309 312 314 317 321 316 316 321 321 317 323 324 323 322 319 311 305 298 295 288 283 276 270 264 265 251
22 20 26 22 36 23 46 42 37 30 25 20 337 325 314 310 309 310 311 309 311 315 317 317 317 317 319 321 323 323 321 323 322 316 312 304 298 291 284 278 270 270 266 261
30 22 22 26 23 39 47 42 31 25 27 33 354 324 324 318 312 308 310 311 309 312 317 317 316 315 317 319 322 324 325 322 323 322 314 312 304 294 287 279 274 270 272 261
25 31 32 26 24 25 37 37 17 27 29 25 28 14 325 329 317 313 311 312 309 313 316 317 317 316 317 318 320 323 324 324 324 326 321 318 309 302 292 287 279 277 272 269
20 26 26 25 26 30 46 42 21 23 15 19 19 22 339 326 323 316 313 310 312 314 316 318 315 316 316 319 322 322 324 324 324 324 327 322 314 308 309 297 287 283 280 275
23 24 25 26 26 28 45 39 31 26 12 1 10 15 15 357 299 317 323 319 315 312 315 316 315 314 315 317 319 320 319 317 321 323 326 323 320 314 309 306 302 293 284 279
27 23 21 30 19 19 40 50 49 43 19 350 4 8 9 334 8 319 323 325 320 318 316 315 314 311 313 315 317 318 320 314 320 318 317 319 322 323 320 315 313 303 298 289
23 27 32 22 29 31 28 42 39 25 15 346 346 358 13 1 7 359 323 318 323 322 319 319 317 314 314 313 315 317 322 324 317 309 304 314 315 319 327 321 323 315 309 304
27 30 28 29 28 31 40 54 50 37 33 25 276 14 12 357 11 9 354 318 314 320 323 324 320 319 316 315 314 314 315 316 321 319 313 311 314 316 314 320 320 329 336 328
38 32 30 27 31 33 41 51 55 46 38 29 11 7 8 11 8 5 8 6 324 315 318 322 323 319 318 317 313 311 310 309 311 313 315 312 313 314 312 314 312 313 321 326